UMKA 1 (RS40S)

Last updated on Fri Dec 19 2025 00:03:11 GMT+0000 (Coordinated Universal Time)

1 57172U 23091G 25352.60809671 .00005174 00000+0 25540-3 0 9996 2 57172 97.5338 47.0477 0014304 34.4568 325.7590 15.18246295136587
UTC large
Height (km)
Speed (km/s)
/
Latitude / Longitude
Inclination (degrees)
Orbital Period (minutes)
Azimuth
Elevation
Range (km)
Doppler Factor

Next 0 passes for location: London (51.5072 / 0.1276)

Sorry there are no passes over London.